TimeCDT,TemperatureF,Dew PointF,Humidity,Sea Level PressureIn,VisibilityMPH,Wind Direction,Wind SpeedMPH,Gust SpeedMPH,PrecipitationIn,Events,Conditions,WindDirDegrees,DateUTC
12:53 AM,68.0,64.9,90,30.05,8.0,Calm,Calm,-,N/A,,Clear,0,2013-08-28 05:53:00
1:53 AM,66.9,64.0,90,30.04,8.0,Calm,Calm,-,N/A,,Clear,0,2013-08-28 06:53:00
2:53 AM,66.0,63.0,90,30.03,9.0,Calm,Calm,-,N/A,,Clear,0,2013-08-28 07:53:00
3:53 AM,64.9,63.0,93,30.02,8.0,Calm,Calm,-,0.01,,Clear,0,2013-08-28 08:53:00
4:53 AM,64.9,62.1,90,30.02,8.0,Calm,Calm,-,N/A,,Clear,0,2013-08-28 09:53:00
5:53 AM,64.0,61.0,90,30.04,8.0,Calm,Calm,-,N/A,,Clear,0,2013-08-28 10:53:00
6:53 AM,64.0,61.0,90,30.06,8.0,Calm,Calm,-,N/A,,Clear,0,2013-08-28 11:53:00
7:53 AM,69.1,64.9,87,30.08,9.0,North,3.5,-,N/A,,Partly Cloudy,10,2013-08-28 12:53:00
8:53 AM,73.9,66.9,79,30.09,10.0,North,3.5,-,N/A,,Mostly Cloudy,10,2013-08-28 13:53:00
9:53 AM,81.0,66.9,62,30.10,10.0,ENE,4.6,-,N/A,,Partly Cloudy,60,2013-08-28 14:53:00
10:53 AM,84.0,64.0,51,30.09,10.0,NE,4.6,-,N/A,,Partly Cloudy,50,2013-08-28 15:53:00
11:53 AM,84.9,63.0,48,30.09,10.0,Calm,Calm,-,N/A,,Mostly Cloudy,0,2013-08-28 16:53:00
12:53 PM,84.0,63.0,49,30.08,10.0,Variable,4.6,-,N/A,,Mostly Cloudy,0,2013-08-28 17:53:00
1:53 PM,87.1,64.0,46,30.06,10.0,Variable,3.5,-,N/A,,Mostly Cloudy,0,2013-08-28 18:53:00
2:53 PM,87.1,64.0,46,30.04,10.0,NE,5.8,-,N/A,,Mostly Cloudy,40,2013-08-28 19:53:00
3:53 PM,87.1,62.1,43,30.03,10.0,North,5.8,-,N/A,,Mostly Cloudy,360,2013-08-28 20:53:00
4:53 PM,88.0,62.1,42,30.02,10.0,Calm,Calm,-,N/A,,Mostly Cloudy,0,2013-08-28 21:53:00
5:53 PM,86.0,63.0,46,30.01,10.0,North,4.6,-,N/A,,Partly Cloudy,360,2013-08-28 22:53:00
6:53 PM,82.9,64.9,54,30.02,10.0,NNW,3.5,-,N/A,,Clear,340,2013-08-28 23:53:00
7:53 PM,77.0,66.9,71,30.02,10.0,Calm,Calm,-,N/A,,Clear,0,2013-08-29 00:53:00
8:53 PM,73.9,69.1,85,30.03,10.0,Calm,Calm,-,N/A,,Clear,0,2013-08-29 01:53:00
9:53 PM,72.0,68.0,87,30.04,10.0,Calm,Calm,-,N/A,,Clear,0,2013-08-29 02:53:00
10:53 PM,71.1,66.9,87,30.04,10.0,Calm,Calm,-,N/A,,Clear,0,2013-08-29 03:53:00
11:53 PM,70.0,66.9,90,30.04,10.0,Calm,Calm,-,N/A,,Clear,0,2013-08-29 04:53:00